TimePDT,TemperatureF,Dew PointF,Humidity,Sea Level PressureIn,VisibilityMPH,Wind Direction,Wind SpeedMPH,Gust SpeedMPH,PrecipitationIn,Events,Conditions,WindDirDegrees,DateUTC
12:53 AM,55.9,46.9,72,29.82,10.0,NE,5.8,-,N/A,,Clear,40,2013-05-08 07:53:00
1:53 AM,50.0,45.0,83,29.84,10.0,NNW,4.6,-,N/A,,Clear,340,2013-05-08 08:53:00
2:53 AM,50.0,46.0,86,29.86,10.0,Calm,Calm,-,N/A,,Clear,0,2013-05-08 09:53:00
3:53 AM,48.9,45.0,86,29.88,10.0,Calm,Calm,-,N/A,,Clear,0,2013-05-08 10:53:00
4:53 AM,48.0,45.0,89,29.89,10.0,Calm,Calm,-,N/A,,Clear,0,2013-05-08 11:53:00
5:53 AM,53.1,46.9,80,29.91,10.0,Calm,Calm,-,N/A,,Clear,0,2013-05-08 12:53:00
6:53 AM,64.0,50.0,60,29.92,10.0,SSW,9.2,-,N/A,,Clear,210,2013-05-08 13:53:00
7:53 AM,66.9,50.0,54,29.94,10.0,SSW,10.4,-,N/A,,Clear,210,2013-05-08 14:53:00
8:53 AM,70.0,51.1,51,29.95,10.0,SSW,8.1,-,N/A,,Clear,200,2013-05-08 15:53:00
9:53 AM,73.0,51.1,46,29.96,10.0,SSW,5.8,-,N/A,,Clear,200,2013-05-08 16:53:00
10:53 AM,75.9,50.0,40,29.96,10.0,Variable,3.5,-,N/A,,Clear,0,2013-05-08 17:53:00
11:53 AM,80.1,48.9,34,29.96,10.0,Variable,4.6,-,N/A,,Clear,0,2013-05-08 18:53:00
12:53 PM,82.9,48.9,31,29.94,10.0,Calm,Calm,-,N/A,,Clear,0,2013-05-08 19:53:00
1:53 PM,84.0,48.9,29,29.93,10.0,Variable,3.5,-,N/A,,Clear,0,2013-05-08 20:53:00
2:53 PM,88.0,51.1,28,29.91,10.0,North,4.6,-,N/A,,Clear,350,2013-05-08 21:53:00
3:53 PM,88.0,48.9,26,29.89,10.0,Variable,3.5,-,N/A,,Clear,0,2013-05-08 22:53:00
4:53 PM,90.0,45.0,21,29.88,10.0,Variable,3.5,-,N/A,,Clear,0,2013-05-08 23:53:00
5:53 PM,90.0,42.1,19,29.88,10.0,Variable,3.5,-,N/A,,Clear,0,2013-05-09 00:53:00
6:53 PM,89.1,43.0,20,29.87,10.0,Calm,Calm,-,N/A,,Clear,0,2013-05-09 01:53:00
7:53 PM,84.0,42.1,23,29.87,2.0,Calm,Calm,-,N/A,,Haze,0,2013-05-09 02:53:00
8:05 PM,82.4,41.0,23,29.88,10.0,Calm,Calm,-,N/A,,Clear,0,2013-05-09 03:05:00
8:53 PM,77.0,46.9,34,29.88,10.0,Calm,Calm,-,N/A,,Clear,0,2013-05-09 03:53:00
9:53 PM,64.0,54.0,70,29.90,10.0,Calm,Calm,-,N/A,,Clear,0,2013-05-09 04:53:00
10:53 PM,62.1,52.0,70,29.92,10.0,NNE,3.5,-,N/A,,Clear,30,2013-05-09 05:53:00
11:53 PM,57.9,52.0,81,29.94,10.0,Calm,Calm,-,N/A,,Clear,0,2013-05-09 06:53:00